Location: Unspecified
(0.0000°N, 0.0000°E)
Time: 05:52:13
(UTC+00:00)

S-56A Canister/Altair - Visible Passes

Search period start: 23 April 2025 00:00
Search period end: 03 May 2025 00:00
Orbit: 633 x 2486 km, 38.9° (Epoch: 21 April)

Date Brightness Start Highest point End Pass type
(mag) Time Alt. Az. Time Alt. Az. Time Alt. Az.
23 Apr 11.7 02:03:34 10° NNE 02:07:31 12° NNE 02:11:42 10° NE visible
23 Apr 10.9 04:02:31 10° NNW 04:15:22 43° NE 04:29:03 10° ESE visible
23 Apr 9.9 19:02:06 10° WNW 19:05:08 17° NW 19:08:29 10° N visible
24 Apr 11.0 03:27:53 10° NNW 03:39:48 37° NE 03:53:01 10° ESE visible
24 Apr 10.1 05:31:56 10° NW 05:46:38 82° SW 06:00:57 10° SE visible
24 Apr 9.6 18:27:05 10° W 18:30:35 22° NW 18:34:22 10° NNE visible
25 Apr 11.1 02:53:25 10° NNW 03:04:17 31° NE 03:16:43 10° E visible
25 Apr 10.1 04:56:43 10° NW 05:11:03 88° NE 05:25:46 10° SE visible
26 Apr 11.2 02:19:09 10° NNW 02:28:49 26° NE 02:40:07 10° E visible
26 Apr 10.1 04:21:40 10° NW 04:35:27 79° NE 04:50:26 10° SE visible
27 Apr 11.2 01:46:31 13° N 01:53:25 21° NE 02:03:07 10° E visible
27 Apr 10.1 03:46:46 10° NW 03:59:54 69° NE 04:14:55 10° ESE visible
28 Apr 11.3 01:15:57 16° NNE 01:18:03 17° NE 01:25:40 10° ENE visible
28 Apr 10.2 03:13:23 15° NNW 03:24:24 60° NE 03:39:12 10° ESE visible
28 Apr 10.2 05:17:30 10° WNW 05:31:09 53° SW 05:45:16 10° SSE visible
29 Apr 11.5 00:45:23 12° NE 00:45:23 12° NE 00:47:19 10° ENE visible
29 Apr 10.3 02:42:51 32° NNW 02:48:59 51° NE 03:03:17 10° ESE visible
29 Apr 10.0 04:42:05 10° WNW 04:55:31 60° SW 05:10:11 10° SE visible
30 Apr 10.3 02:12:11 42° NNE 02:13:38 43° NE 02:27:11 10° ESE visible
30 Apr 9.8 04:09:38 20° WNW 04:19:55 68° SW 04:34:58 10° SE visible
01 May 10.7 01:41:23 33° ENE 01:41:23 33° ENE 01:50:51 10° ESE visible
01 May 9.7 03:38:48 44° WNW 03:44:21 77° SW 03:59:36 10° SE visible
02 May 11.3 01:10:22 19° E 01:10:22 19° E 01:14:17 10° E visible
02 May 9.5 03:07:47 80° WNW 03:08:51 87° SW 03:24:05 10° SE visible
02 May 10.5 05:05:11 12° W 05:16:10 32° SW 05:28:46 10° SSE visible
